Mount Shasta, CA

9:04 AM PDT on October 17, 2017 (GMT -0700)
Mount Shasta

Weather History for KMHS - October, 2014

Change the Weather History Date:

Thursday, October 23, 2014

  Actual Average Record
Temperature  
Mean Temperature 49 °F 49 °F  
Max Temperature 53 °F 63 °F 81 °F (1965)
Min Temperature 45 °F 35 °F 22 °F (1935)
Degree Days  
Heating Degree Days 16 16  
Month to date heating degree days 201 283  
Since 1 July heating degree days 281 520  
Cooling Degree Days 0 0  
Month to date cooling degree days 0 0  
Year to date cooling degree days 547 287  
Moisture  
Dew Point 46 °F    
Average Humidity 92    
Maximum Humidity 100    
Minimum Humidity 86    
Precipitation  
Precipitation 0.76 in 0.09 in 3.50 in (1989)
Month to date precipitation 2.35 1.35  
Year to date precipitation 17.19 29.35  
Sea Level Pressure  
Sea Level Pressure 30.09 in    
Wind  
Wind Speed 1 mph (East)    
Max Wind Speed 9 mph    
Max Gust Speed 15 mph    
Visibility 8 miles    
Events Rain    
T = Trace of Precipitation, MM = Missing Value Source: NWS Daily Summary

Daily Weather History Graph

Daily Weather History Graph

Search for Another Location

Airport or City:

Trip Planner

Search our weather history database for the weather conditions in past years. The results will help you decide how hot, cold, wet, or windy it might be!

Date:

Astronomy

Oct. 23, 2014 Rise Set
Actual Time 7:30 AM PDT 6:16 PM PDT
Civil Twilight 7:02 AM PDT 6:44 PM PDT
Nautical Twilight 6:29 AM PDT 7:16 PM PDT
Astronomical Twilight 5:57 AM PDT 7:48 PM PDT
Moon 7:15 AM PDT (10/23) 6:21 PM PDT (10/23)
Length of Visible Light 11h 42m
Length of Day
10h 46m
Waning Crescent, 0% of the Moon is Illuminated
Oct 23
Waning Crescent
Oct 23
New
Oct 30
First Quarter
Nov 6
Full
Nov 14
Last Quarter

Hourly Weather History & Observations

Time (PDT) Temp. Dew Point Humidity Pressure Visibility Wind Dir Wind Speed Gust Speed Precip Events Conditions
12:25 AM 48.0 °F 44.1 °F 86% 30.06 in 9.0 mi East 5.8 mph - N/A   Overcast
12:56 AM 48.9 °F 45.0 °F 86% 30.06 in 8.0 mi Variable 6.9 mph - 0.01 in Rain Light Rain
1:56 AM 48.9 °F 45.0 °F 86% 30.07 in 10.0 mi Variable 4.6 mph - 0.03 in Rain Light Rain
2:56 AM 48.0 °F 46.0 °F 93% 30.09 in 8.0 mi Variable 3.5 mph - 0.04 in Rain Light Rain
3:56 AM 48.0 °F 45.0 °F 89% 30.07 in 6.0 mi Calm Calm - 0.05 in Rain Light Rain
4:53 AM 48.2 °F 46.4 °F 93% 30.00 in 10.0 mi Calm Calm - 0.02 in   Overcast
4:56 AM 48.9 °F 46.0 °F 90% 30.04 in 10.0 mi Variable 3.5 mph - 0.02 in   Overcast
5:56 AM 48.0 °F 46.0 °F 93% 30.06 in 7.0 mi Calm Calm - 0.03 in Rain Light Rain
6:56 AM 48.0 °F 46.0 °F 93% 30.07 in 8.0 mi Calm Calm - 0.04 in Rain Light Rain
7:56 AM 48.0 °F 46.0 °F 93% 30.09 in 7.0 mi Variable 4.6 mph - 0.04 in Rain Light Rain
8:17 AM 48.0 °F 46.0 °F 93% 30.05 in 6.0 mi East 3.5 mph - 0.02 in Rain Light Rain
8:56 AM 48.0 °F 45.0 °F 89% 30.11 in 7.0 mi East 3.5 mph - 0.06 in Rain Light Rain
9:56 AM 48.9 °F 46.0 °F 90% 30.10 in 7.0 mi Variable 4.6 mph - 0.03 in Rain Light Rain
10:32 AM 48.9 °F 46.0 °F 90% 30.07 in 6.0 mi Calm Calm - 0.02 in Rain Light Rain
10:56 AM 48.9 °F 46.9 °F 93% 30.11 in 6.0 mi Calm Calm - 0.04 in Rain Rain
11:18 AM 50.0 °F 46.9 °F 89% 30.07 in 10.0 mi Calm Calm - 0.01 in Rain Light Rain
11:56 AM 51.1 °F 48.9 °F 92% 30.11 in 9.0 mi Calm Calm - 0.02 in Rain Light Rain
12:56 PM 51.1 °F 48.9 °F 92% 30.10 in 7.0 mi Calm Calm - 0.03 in Rain Light Rain
1:56 PM 52.0 °F 48.9 °F 89% 30.09 in 10.0 mi Calm Calm - 0.02 in   Overcast
2:56 PM 50.0 °F 48.0 °F 93% 30.11 in 10.0 mi Calm Calm - 0.01 in Rain Light Rain
3:56 PM 50.0 °F 48.0 °F 93% 30.12 in 10.0 mi Calm Calm - 0.02 in Rain Light Rain
4:56 PM 50.0 °F 48.0 °F 93% 30.12 in 10.0 mi Calm Calm - 0.03 in Rain Light Rain
5:56 PM 48.9 °F 46.9 °F 93% 30.12 in 10.0 mi Calm Calm - 0.01 in   Overcast
6:56 PM 48.0 °F 46.9 °F 96% 30.12 in 10.0 mi Calm Calm - 0.01 in Rain Light Rain
7:56 PM 46.9 °F 44.1 °F 90% 30.13 in 9.0 mi Calm Calm - 0.04 in Rain Light Rain
8:56 PM 46.0 °F 44.1 °F 93% 30.12 in 6.0 mi Calm Calm - 0.07 in Rain Rain
9:43 PM 45.0 °F 44.1 °F 97% 30.07 in 4.0 mi Calm Calm - 0.04 in Rain Light Rain
9:56 PM 45.0 °F 44.1 °F 97% 30.12 in 6.0 mi Calm Calm - 0.05 in Rain Light Rain
10:56 PM 45.0 °F 44.1 °F 97% 30.12 in 7.0 mi Calm Calm - 0.01 in Rain Light Rain
11:08 PM 46.0 °F 44.1 °F 93% 30.07 in 6.0 mi Calm Calm - 0.01 in Rain Light Rain
11:16 PM 46.0 °F 44.1 °F 93% 30.07 in 6.0 mi Calm Calm - 0.01 in Rain Light Rain
11:53 PM 46.4 °F 44.6 °F 93% 30.07 in 5.0 mi Calm Calm - 0.02 in Rain Light Rain
11:56 PM 46.0 °F 44.1 °F 93% 30.11 in 5.0 mi Calm Calm - 0.03 in Rain Light Rain